EW9925 Weather Reports


Display with metric or nautical units.
time (UTC)temp
F
wind
direction
speed
MPH
gust
MPH
rain 1hr
in
rain 24hr
in
rain mn
in
humidity
%
barometer
mb
20260505130252 51 131 1.0 3.0 0.00 0.00 0.00 98 1006.1
20260505124743 51 148 0.0 2.0 0.00 0.00 0.00 98 1006.0
20260505124240 51 93 2.0 3.0 0.00 0.00 0.00 98 1005.8
20260505123735 51 94 1.0 2.0 0.00 0.00 0.00 98 1005.8
20260505123232 51 64 0.0 2.0 0.00 0.00 0.00 98 1005.8
20260505122728 51 78 1.0 2.0 0.00 0.00 0.00 98 1005.8
20260505122226 51 101 1.0 2.0 0.00 0.00 0.00 97 1005.9
20260505121722 51 57 0.0 1.0 0.00 0.00 0.00 97 1006.1
20260505121219 51 50 0.0 2.0 0.00 0.00 0.00 97 1005.9
20260505120715 51 78 1.0 2.0 0.00 0.00 0.00 97 1005.9
20260505120211 51 88 1.0 2.0 0.00 0.00 0.00 97 1006.0
20260505115705 51 325 0.0 2.0 0.00 0.00 0.00 97 1005.8
20260505115203 51 338 0.0 3.0 0.00 0.00 0.00 97 1005.7
20260505114700 51 76 0.0 2.0 0.00 0.00 0.00 96 1005.8
20260505114155 51 25 1.0 3.0 0.00 0.00 0.00 96 1005.8
20260505113652 51 80 1.0 2.0 0.00 0.00 0.00 96 1005.6
20260505113149 52 65 0.0 3.0 0.00 0.00 0.00 95 1005.6
20260505112645 52 214 0.0 2.0 0.00 0.00 0.00 95 1005.7
20260505112143 52 192 0.0 3.0 0.00 0.00 0.00 95 1005.7
20260505111642 52 44 0.0 1.0 0.00 0.00 0.00 95 1005.5
20260505111139 52 89 0.0 1.0 0.00 0.00 0.00 94 1005.6
20260505110635 52 285 0.0 3.0 0.00 0.00 0.00 94 1005.6
20260505110133 52 21 0.0 5.0 0.00 0.00 0.00 94 1005.3
20260505102108 52 48 0.0 5.0 0.00 0.00 0.00 94 1005.4
20260505101607 52 80 1.0 3.0 0.00 0.00 0.00 94 1005.3
20260505101103 52 129 0.0 4.0 0.00 0.00 0.00 94 1005.3
20260505100559 52 156 3.0 4.0 0.00 0.00 0.00 94 1005.1
20260505100056 52 60 0.0 2.0 0.00 0.00 0.00 94 1005.1
20260505095552 52 37 0.0 3.0 0.00 0.00 0.00 94 1005.3
20260505095049 52 89 0.0 2.0 0.00 0.00 0.00 94 1005.2
20260505094545 52 295 0.0 3.0 0.00 0.00 0.00 94 1005.1
20260505094042 52 34 0.0 3.0 0.00 0.00 0.00 94 1005.4
20260505093538 52 74 2.0 3.0 0.00 0.00 0.00 94 1005.0
20260505093036 52 55 0.0 3.0 0.00 0.00 0.00 94 1004.9
20260505092533 52 32 1.0 2.0 0.00 0.00 0.00 95 1005.2
20260505092031 52 259 1.0 3.0 0.00 0.00 0.00 95 1005.2
20260505091528 52 76 0.0 2.0 0.00 0.00 0.00 94 1005.0
20260505091027 52 273 2.0 3.0 0.00 0.00 0.00 95 1005.1
20260505090524 51 97 1.0 3.0 0.00 0.00 0.00 95 1005.0
20260505090021 51 103 0.0 3.0 0.00 0.00 0.00 95 1004.8
20260505085519 51 12 0.0 3.0 0.00 0.00 0.00 95 1005.0
20260505085017 51 307 2.0 4.0 0.00 0.00 0.00 95 1005.1
20260505084515 51 269 0.0 3.0 0.00 0.00 0.00 95 1004.9
20260505084013 51 95 0.0 3.0 0.00 0.00 0.00 95 1004.9
20260505083510 51 356 2.0 3.0 0.00 0.00 0.00 95 1005.0
20260505083006 51 43 0.0 4.0 0.00 0.00 0.00 95 1005.0
20260505082502 51 178 1.0 7.0 0.00 0.00 0.00 96 1004.9
20260505081959 51 150 2.0 3.0 0.00 0.00 0.00 96 1004.9
20260505081455 51 95 2.0 3.0 0.00 0.00 0.00 96 1004.9
20260505080952 51 119 2.0 5.0 0.00 0.00 0.00 96 1004.8
20260505080448 51 136 2.0 3.0 0.00 0.00 0.00 96 1004.8
20260505075944 51 119 3.0 3.0 0.00 0.00 0.00 96 1004.8
20260505075441 50 75 0.0 5.0 0.00 0.00 0.00 97 1004.7
20260505074938 50 69 0.0 2.0 0.00 0.00 0.00 96 1004.7
20260505074436 50 87 3.0 3.0 0.00 0.00 0.00 96 1004.7
20260505073933 50 142 0.0 2.0 0.00 0.00 0.00 96 1004.7
20260505073430 51 71 0.0 3.0 0.00 0.00 0.00 96 1004.5
20260505072927 51 89 0.0 2.0 0.00 0.00 0.00 96 1004.5
20260505072423 51 82 3.0 4.0 0.00 0.00 0.00 95 1004.5
20260505071919 51 170 2.0 3.0 0.00 0.00 0.00 95 1004.4
20260505071415 51 169 1.0 3.0 0.00 0.00 0.00 96 1004.4
20260505070914 51 104 0.0 1.0 0.00 0.00 0.00 95 1004.3
20260505070410 51 131 2.0 3.0 0.00 0.00 0.00 95 1004.3
20260505065906 51 240 0.0 3.0 0.00 0.00 0.00 95 1004.3
20260505065403 51 108 3.0 5.0 0.00 0.00 0.00 95 1004.1
20260505064859 51 81 1.0 3.0 0.00 0.00 0.00 95 1004.3
20260505064357 51 126 1.0 3.0 0.00 0.00 0.00 95 1004.3
20260505063855 51 55 1.0 4.0 0.00 0.00 0.00 94 1004.3
20260505063355 51 288 0.0 4.0 0.00 0.00 0.00 94 1004.4
20260505062853 51 139 0.0 3.0 0.00 0.00 0.00 94 1004.1
20260505062350 51 182 1.0 4.0 0.00 0.00 0.00 94 1004.1
20260505061846 51 172 2.0 4.0 0.00 0.00 0.00 94 1004.1
20260505061345 52 5 2.0 7.0 0.00 0.00 0.00 94 1004.1
20260505060842 52 117 2.0 3.0 0.00 0.00 0.00 94 1004.3
20260505060339 52 106 2.0 5.0 0.00 0.00 0.00 94
20260505055835 51 297 0.0 5.0 0.00 0.00 0.00 94
20260505055331 51 252 1.0 3.0 0.00 0.00 0.00 94
20260505054828 52 53 3.0 3.0 0.00 0.00 0.00 94 1003.9
20260505054325 52 14 3.0 3.0 0.00 0.00 0.00 93 1003.9
20260505053824 52 171 4.0 5.0 0.00 0.00 0.00 94 1003.9
20260505053320 52 103 0.0 3.0 0.00 0.00 0.00 93 1003.9
20260505052817 52 89 0.0 2.0 0.00 0.00 0.00 93 1003.9
20260505052314 52 142 0.0 2.0 0.00 0.00 0.00 93 1003.9
20260505051811 52 13 0.0 3.0 0.00 0.00 0.00 93 1003.9
20260505051308 52 279 0.0 4.0 0.00 0.00 0.00 93 1003.9
20260505050806 52 89 0.0 2.0 0.00 0.00 0.00 92 1003.9
20260505050305 53 63 2.0 5.0 0.00 0.00 0.00 92 1003.9
20260505041734 54 88 3.0 3.0 0.00 0.00 0.00 91 1003.3
20260505041231 55 189 0.0 3.0 0.00 0.00 0.00 91 1003.3
20260505040729 55 154 0.0 1.0 0.00 0.00 0.00 90 1003.0
20260505040226 55 348 1.0 3.0 0.00 0.00 0.00 90 1003.0
20260505035723 55 127 0.0 2.0 0.00 0.00 0.00 89 1003.0
20260505035219 56 66 0.0 7.0 0.00 0.00 0.00 89 1003.0
20260505034716 56 34 0.0 4.0 0.00 0.00 0.00 89 1002.6
20260505034213 56 124 0.0 3.0 0.00 0.00 0.00 88 1002.6
20260505033709 57 251 0.0 3.0 0.00 0.00 0.00 88 1002.6
20260505033207 57 86 0.0 4.0 0.00 0.00 0.00 87 1002.5
20260505032705 57 284 0.0 3.0 0.00 0.00 0.00 87 1002.5
20260505032200 58 45 2.0 2.0 0.00 0.00 0.00 86 1002.6
20260505031658 59 285 2.0 3.0 0.00 0.00 0.00 85 1002.5
20260505031154 59 116 0.0 4.0 0.00 0.00 0.00 85 1002.4
20260505030651 59 135 3.0 9.0 0.00 0.00 0.00 84 1002.4
20260505030147 60 336 1.0 7.0 0.00 0.00 0.00 84 1002.4
20260505025643 60 345 0.0 2.0 0.00 0.00 0.00 83 1002.4
20260505025142 60 104 1.0 5.0 0.00 0.00 0.00 83 1002.1
20260505024639 61 280 1.0 4.0 0.00 0.00 0.00 82 1002.3
20260505024136 61 50 0.0 11.0 0.00 0.00 0.00 82 1001.9
20260505023634 62 284 3.0 6.0 0.00 0.00 0.00 81 1001.9
20260505023131 62 25 1.0 4.0 0.00 0.00 0.00 80 1002.1
20260505022628 63 49 1.0 7.0 0.00 0.00 0.00 79 1002.1
20260505022125 63 333 2.0 5.0 0.00 0.00 0.00 79 1002.1
20260505021622 63 32 1.0 4.0 0.00 0.00 0.00 79 1002.1
20260505021119 64 89 0.0 5.0 0.00 0.00 0.00 77 1002.1
20260505020614 64 331 1.0 4.0 0.00 0.00 0.00 78 1002.0
20260505020111 64 297 2.0 5.0 0.00 0.00 0.00 78 1002.0
20260505015608 65 317 2.0 5.0 0.00 0.00 0.00 76 1002.0
20260505015105 65 314 3.0 4.0 0.00 0.00 0.00 76 1001.9
20260505014601 66 355 4.0 7.0 0.00 0.00 0.00 77 1001.9
20260505014058 66 140 2.0 10.0 0.00 0.00 0.00 74 1002.0
20260505013555 66 249 0.0 7.0 0.00 0.00 0.00 74 1002.0
20260505013053 66 25 0.0 6.0 0.00 0.00 0.00 74 1002.0
20260505012550 67 96 2.0 6.0 0.00 0.00 0.00 75 1002.1
20260505012047 68 313 2.0 6.0 0.00 0.00 0.00 73 1002.0
20260505011543 68 282 3.0 9.0 0.00 0.00 0.00 73 1002.1
20260505011041 68 265 3.0 5.0 0.00 0.00 0.00 73 1002.0
20260505010536 69 284 2.0 8.0 0.00 0.00 0.00 73 1002.0
20260505010033 69 312 1.0 3.0 0.00 0.00 0.00 72 1002.1
20260505005529 69 277 0.0 5.0 0.00 0.00 0.00 72 1002.2
20260505005027 69 239 2.0 6.0 0.00 0.00 0.00 73 1002.1
20260505004523 70 283 3.0 5.0 0.00 0.00 0.00 71 1001.9
20260505004020 70 292 3.0 4.0 0.00 0.00 0.00 72 1002.1
20260505003517 70 306 2.0 4.0 0.00 0.00 0.00 72 1002.2
20260505003015 70 306 2.0 4.0 0.00 0.00 0.00 72 1002.2
20260505002509 70 318 2.0 6.0 0.00 0.00 0.00 72 1002.2
20260505002009 70 217 0.0 4.0 0.00 0.00 0.00 71 1002.2
20260505001506 70 8 1.0 6.0 0.00 0.00 0.00 71 1002.0
20260505001003 70 323 5.0 10.0 0.00 0.00 0.00 73 1002.3
20260505000500 70 248 0.0 12.0 0.00 0.00 0.00 72 1002.1
20260504235957 70 292 7.0 12.0 0.00 0.00 0.00 70 1002.2
20260504235454 71 341 3.0 6.0 0.00 0.00 0.00 73 1002.3
20260504234950 70 290 3.0 4.0 0.00 0.00 0.00 74 1002.2
20260504234448 70 111 3.0 5.0 0.00 0.00 0.00 74 1002.2
20260504233944 70 106 5.0 8.0 0.00 0.00 0.00 72 1002.3
20260504233440 70 141 3.0 7.0 0.00 0.00 0.00 68 1002.3
20260504232937 70 38 1.0 5.0 0.00 0.00 0.00 72 1002.3
20260504232434 70 353 2.0 6.0 0.00 0.00 0.00 71 1002.6
20260504231931 70 292 4.0 6.0 0.00 0.00 0.00 71 1002.6
20260504231427 70 36 2.0 7.0 0.00 0.00 0.00 71 1002.6
20260504230924 70 331 3.0 8.0 0.00 0.00 0.00 71 1002.6
20260504230421 70 356 1.0 5.0 0.00 0.00 0.00 71 1002.6
20260504225920 71 211 4.0 6.0 0.00 0.00 0.00 68 1002.8
20260504225416 71 167 3.0 6.0 0.00 0.00 0.00 68 1002.8
20260504224914 71 155 5.0 7.0 0.00 0.00 0.00 68 1002.7
20260504224410 71 91 4.0 8.0 0.00 0.00 0.00 67 1002.7
20260504223907 70 158 4.0 8.0 0.00 0.00 0.00 70 1002.9
20260504223402 71 86 2.0 9.0 0.00 0.00 0.00 68 1002.9
20260504222859 69 152 3.0 10.0 0.00 0.00 0.00 69 1003.0
20260504222356 71 232 3.0 6.0 0.00 0.00 0.00 66 1002.8
20260504221854 71 180 3.0 7.0 0.00 0.00 0.00 71 1003.1
20260504221351 71 330 3.0 7.0 0.00 0.00 0.00 70 1003.0
20260504220848 70 288 2.0 5.0 0.00 0.00 0.00 67 1003.2
20260504220344 70 74 5.0 6.0 0.00 0.00 0.00 68 1003.1
20260504215842 70 25 2.0 5.0 0.00 0.00 0.00 69 1003.3
20260504215338 69 39 3.0 7.0 0.00 0.00 0.00 70 1003.5
20260504214834 69 183 3.0 9.0 0.00 0.00 0.00 70 1003.5
20260504214331 68 85 1.0 9.0 0.00 0.00 0.00 70 1003.2
20260504213828 68 98 7.0 7.0 0.00 0.00 0.00 71 1003.4
20260504213324 68 58 3.0 7.0 0.00 0.00 0.00 72 1003.4
20260504212821 69 305 3.0 6.0 0.00 0.00 0.00 70 1003.5
20260504212317 71 34 2.0 4.0 0.00 0.00 0.00 72 1003.7
20260504211815 69 175 4.0 5.0 0.00 0.00 0.00 71 1003.6
20260504211311 68 7 2.0 4.0 0.00 0.00 0.00 70 1003.8
20260504210809 67 100 2.0 5.0 0.00 0.00 0.00 75 1003.7
20260504210306 66 106 3.0 9.0 0.00 0.00 0.00 73 1004.0
20260504205803 66 79 3.0 7.0 0.00 0.00 0.00 73 1003.8
20260504205300 68 182 3.0 9.0 0.00 0.00 0.00 73 1003.9
20260504204758 65 93 8.0 9.0 0.00 0.00 0.00 75 1003.9
20260504204256 67 209 5.0 8.0 0.00 0.00 0.00 72 1004.2
20260504203756 65 343 4.0 6.0 0.00 0.00 0.00 75 1004.2
20260504203252 65 146 3.0 7.0 0.00 0.00 0.00 76 1004.2
20260504202747 66 121 4.0 10.0 0.00 0.00 0.00 73 1004.1
20260504202245 66 12 2.0 4.0 0.00 0.00 0.00 72 1004.3
20260504201741 66 184 5.0 9.0 0.00 0.00 0.00 76 1004.1
20260504201238 67 321 6.0 6.0 0.00 0.00 0.00 76 1004.4
20260504200737 65 251 3.0 5.0 0.00 0.00 0.00 78 1004.2
20260504200232 65 71 4.0 9.0 0.00 0.00 0.00 74 1004.3
20260504195729 64 170 6.0 9.0 0.00 0.00 0.00 76 1004.3
20260504195225 65 141 2.0 6.0 0.00 0.00 0.00 74 1004.3
20260504194722 64 97 3.0 6.0 0.00 0.00 0.00 75 1004.3
20260504194218 66 355 2.0 6.0 0.00 0.00 0.00 75 1004.3
20260504193714 64 329 3.0 7.0 0.00 0.00 0.00 79 1004.3
20260504193212 62 75 1.0 7.0 0.00 0.00 0.00 78 1004.3
20260504192710 62 66 2.0 7.0 0.00 0.00 0.00 78 1004.5
20260504192208 64 84 4.0 10.0 0.00 0.00 0.00 77 1004.5
20260504191706 64 99 6.0 10.0 0.00 0.00 0.00 77 1004.5
20260504191203 62 70 5.0 7.0 0.00 0.00 0.00 79 1004.5
20260504190658 62 82 8.0 11.0 0.00 0.00 0.00 77 1004.6
20260504190155 64 221 3.0 5.0 0.00 0.00 0.00 78 1004.6
20260504185651 62 249 4.0 7.0 0.00 0.00 0.00 81 1004.7
20260504185148 64 82 1.0 5.0 0.00 0.00 0.00 79 1004.7
20260504184644 62 6 0.0 8.0 0.00 0.00 0.00 79 1004.8
20260504184139 61 86 2.0 8.0 0.00 0.00 0.00 79 1004.6
20260504183636 61 204 4.0 8.0 0.00 0.00 0.00 79 1004.7
20260504183134 61 136 4.0 7.0 0.00 0.00 0.00 79 1004.6
20260504182631 62 127 8.0 10.0 0.00 0.00 0.00 77 1004.7
20260504182129 59 102 1.0 4.0 0.00 0.00 0.00 83 1004.6
20260504181626 60 96 5.0 6.0 0.00 0.00 0.00 84 1004.7
20260504181123 59 276 4.0 7.0 0.00 0.00 0.00 83 1004.8
20260504180623 60 193 3.0 4.0 0.00 0.00 0.00 82 1004.7
20260504180121 58 109 0.0 9.0 0.00 0.00 0.00 85 1004.6
20260504175618 59 41 3.0 5.0 0.00 0.00 0.00 83 1004.7
20260504175114 59 108 2.0 6.0 0.00 0.00 0.00 85 1004.7
20260504174613 59 215 3.0 11.0 0.00 0.00 0.00 84 1004.6
20260504174109 60 65 2.0 4.0 0.00 0.00 0.00 84 1004.7
20260504173606 59 62 2.0 4.0 0.00 0.00 0.00 84 1004.7
20260504173104 59 137 3.0 7.0 0.00 0.00 0.00 83 1004.5
20260504172559 58 59 3.0 8.0 0.00 0.00 0.00 85 1004.7
20260504172056 60 163 5.0 9.0 0.00 0.00 0.00 83 1004.6
20260504171553 59 79 5.0 6.0 0.00 0.00 0.00 83 1004.6
20260504171050 58 344 3.0 5.0 0.00 0.00 0.00 85 1004.6
20260504170545 58 346 1.0 5.0 0.00 0.00 0.00 87 1004.5
20260504150930 54 299 3.0 5.0 0.00 0.00 0.00 92 1004.3
20260504150426 54 48 0.0 4.0 0.00 0.00 0.00 93 1004.2
20260504140853 53 19 1.0 6.0 0.00 0.00 0.00 96 1003.8
20260504140349 52 334 0.0 4.0 0.00 0.00 0.00 96 1003.7